Location: Doverdale
(52.2833°N, 2.2000°W)
Time: 03:40:00
(UTC+00:00)

Ariane Rocket - Pass Details

Date: 29 October 2020
Orbit: 759 x 770 km, 98.7° (Epoch: 24 November)

Event Time Altitude Azimuth Distance (km) Brightness Sun altitude
Exits shadow 19:33:53 59° 19° (NNE) 895 3.2 -26.3°
Drops below altitude 10° 19:38:11 10° 348° (NNW) 2,325 5.8 -26.9°
Sets 19:40:30 0° 347° (NNW) 3,255 6.6 -27.3°
